Wind_Speed
43 39 35 34 31 27 25 23 22 20 18 14 13 11 11 10 8 8 6 5 3 2 1 2 3 4 6 6 6 5 4 3 2 3 3 3 5 6 7 9 10 13 16
44 43 37 36 34 31 28 26 24 23 21 18 15 13 13 12 10 9 8 6 5 3 3 3 4 5 6 6 6 5 4 3 2 2 3 4 5 5 7 9 10 14 16
47 46 41 35 33 31 30 28 26 25 23 20 17 16 15 15 13 11 10 8 7 7 5 4 4 7 7 7 6 5 4 3 3 3 4 5 5 6 7 8 11 14 16
49 46 44 39 34 32 32 30 28 28 26 22 20 18 18 17 15 14 13 11 10 9 8 6 6 7 7 7 6 6 5 5 5 5 5 5 6 7 8 9 12 15 16
52 48 44 40 37 34 34 32 31 30 29 25 22 21 20 18 18 16 14 14 13 11 10 9 7 7 8 7 7 6 6 6 5 6 5 6 6 7 8 10 12 15 15
51 49 46 41 38 36 35 34 33 32 30 27 24 23 23 21 19 18 16 16 15 13 11 10 9 8 8 8 8 7 7 7 7 5 5 6 7 8 9 11 13 15 15
51 49 48 44 40 38 37 36 35 33 32 29 27 26 25 21 21 20 19 18 17 15 13 12 12 11 9 8 7 7 7 7 7 6 6 6 7 8 9 12 13 15 16
54 51 49 48 43 41 40 38 37 36 34 31 28 28 27 24 23 22 21 20 19 17 15 15 14 12 10 9 8 8 8 8 7 8 7 7 8 10 11 12 13 15 17
59 57 51 49 47 43 40 40 38 38 36 34 32 31 29 25 24 24 23 22 21 20 18 17 15 14 12 11 9 9 9 9 9 9 10 10 11 12 13 14 15 17 18
63 58 56 53 52 47 43 41 41 41 39 36 35 34 30 28 27 27 26 25 23 22 21 18 17 15 14 12 11 10 10 11 11 11 11 12 13 15 16 16 16 17 19
62 56 54 54 54 52 48 46 45 43 41 38 36 35 33 32 31 30 28 27 25 24 23 21 19 17 16 14 14 13 13 13 13 14 14 15 15 17 17 17 18 19 21
52 58 55 56 57 56 53 49 48 45 43 41 38 37 36 35 33 32 31 29 27 26 25 23 21 19 18 16 16 16 15 15 16 16 17 18 19 19 19 21 21 21 23
49 62 58 55 59 55 54 52 50 49 46 43 41 40 39 38 36 35 33 31 30 28 27 25 24 22 21 20 18 18 18 19 19 20 20 20 22 22 22 23 23 24 24
57 56 61 59 42 54 57 55 52 50 48 45 43 42 41 40 38 36 34 33 32 31 30 28 27 26 23 22 21 21 21 21 22 22 23 23 23 24 24 25 25 26 25
47 65 64 58 51 51 65 60 56 52 49 47 46 44 44 43 40 38 37 36 34 33 31 30 29 28 26 26 25 25 25 24 25 25 26 26 26 27 27 27 27 28 29
66 45 63 74 55 56 74 64 58 55 51 49 48 46 46 44 43 41 41 39 36 35 33 30 35 32 30 29 28 28 28 29 28 29 29 29 29 28 29 29 30 30 31
72 52 34 42 47 39 63 66 61 59 54 51 50 50 49 46 45 44 44 40 38 37 31 40 37 35 33 31 31 30 31 32 32 32 32 32 32 32 32 32 32 33 32
60 45 39 47 58 41 63 65 63 62 54 53 53 51 50 48 47 46 44 41 40 36 41 41 38 37 35 33 33 33 34 36 35 37 35 35 35 34 34 34 34 35 34
70 54 40 52 49 43 36 64 65 64 61 58 56 53 51 50 51 50 46 46 43 44 42 41 40 39 37 35 35 35 37 39 38 39 38 38 37 37 36 34 35 35 36
63 52 48 29 28 40 41 49 40 66 60 58 57 55 55 55 55 53 50 47 44 45 42 42 41 40 40 36 39 39 40 42 41 41 41 40 39 38 37 36 35 37 36
55 58 49 41 40 41 44 40 43 38 50 58 59 59 60 60 57 53 51 48 49 46 47 44 45 44 41 44 43 40 42 42 42 42 41 39 40 39 39 38 37 34 36
31 51 33 29 34 33 44 47 46 46 41 51 57 62 63 63 60 57 49 51 47 38 40 41 43 47 47 46 47 44 41 44 41 44 42 41 42 42 41 40 38 40 38
31 49 25 29 25 33 45 47 41 49 44 34 47 60 65 64 62 63 56 51 50 47 37 42 42 39 44 47 44 42 43 44 40 39 44 43 43 42 40 42 41 40 39
29 35 23 20 22 31 37 41 44 43 45 41 43 40 59 54 59 54 51 52 54 46 41 43 30 40 44 39 44 44 42 38 38 35 38 37 38 42 39 42 42 43 41
27 26 37 28 29 23 17 35 41 40 44 45 44 55 61 51 52 45 44 48 51 51 42 43 41 45 44 43 46 44 41 39 38 38 42 41 40 45 42 41 44 43 44
19 17 19 15 18 22 19 34 28 21 23 22 28 50 59 54 62 58 46 47 52 58 50 48 39 44 45 44 45 49 44 40 40 44 42 41 44 41 41 46 47 48 48
Wind_Direction
234 234 232 233 232 234 235 241 244 240 236 226 232 243 248 249 247 244 244 229 220 239 284 329 341 338 333 331 325 324 323 310 287 258 264 300 315 330 341 346 357 358 355
232 233 232 234 233 232 235 236 238 234 232 230 231 240 243 244 245 243 238 240 243 252 272 296 322 332 325 319 315 316 314 308 294 273 274 287 303 322 337 346 352 352 352
232 232 231 230 234 231 231 233 233 233 230 228 230 235 239 240 239 241 244 245 246 249 256 267 301 311 314 312 313 315 314 311 304 293 288 293 305 320 331 344 349 348 350
233 232 231 231 230 229 228 229 229 231 231 226 228 233 236 238 237 236 239 242 247 250 255 264 283 293 301 304 305 310 309 311 309 302 300 304 311 321 332 343 343 344 347
232 232 233 232 231 228 227 226 227 229 229 226 228 232 237 238 241 239 239 241 245 250 258 267 279 292 298 297 301 300 302 303 302 300 296 300 306 315 328 335 336 339 340
230 231 233 232 231 230 227 225 226 226 228 227 228 232 237 233 238 241 242 243 245 249 258 265 270 279 293 297 301 296 298 298 294 289 296 300 306 316 324 325 328 332 333
229 229 230 232 229 229 230 226 226 225 226 228 229 232 233 233 236 240 244 245 248 250 254 260 267 272 274 284 293 292 290 290 288 286 288 292 299 307 313 319 325 327 329
228 226 228 230 229 227 229 227 226 225 225 227 230 232 235 234 235 238 241 245 249 251 252 258 264 266 269 268 275 279 282 282 282 286 289 294 300 306 310 314 319 322 324
228 225 226 227 230 227 226 229 226 227 224 226 229 233 237 238 239 239 240 244 248 254 255 256 259 263 262 265 268 271 273 275 280 286 291 294 296 299 304 312 316 317 319
226 227 225 226 229 227 226 228 228 227 226 225 230 233 237 239 240 241 241 243 246 251 256 257 259 258 257 257 261 263 269 273 276 280 284 287 293 299 304 308 308 310 311
221 223 226 228 230 229 228 226 227 227 227 226 229 234 235 236 238 241 244 245 247 251 254 256 256 254 254 256 262 266 268 270 275 277 281 286 289 293 296 297 301 305 305
214 221 222 229 232 230 230 228 226 224 225 226 228 234 236 237 238 240 243 245 247 250 253 254 255 255 253 256 260 264 268 272 275 276 277 280 283 285 290 294 297 298 299
179 211 205 220 228 224 227 227 226 224 223 225 226 231 234 237 238 238 241 244 246 248 250 253 253 252 252 254 257 262 266 270 273 275 276 278 281 284 287 290 293 295 298
197 195 208 210 202 224 226 226 224 223 221 222 226 230 234 237 238 239 240 243 245 248 250 251 253 253 253 256 258 262 264 268 271 273 274 275 278 281 284 287 291 295 296
191 205 201 213 208 220 226 225 223 223 222 223 226 229 232 235 237 239 241 242 243 246 249 250 253 254 255 257 259 263 264 266 269 270 271 274 275 278 281 286 290 292 294
215 188 211 209 225 218 222 221 224 225 224 226 227 230 233 235 236 238 240 241 243 245 247 255 259 253 255 258 262 264 268 269 269 270 271 271 273 275 280 284 286 288 289
228 206 199 198 197 204 218 216 218 223 222 224 227 230 232 234 237 239 241 242 244 247 250 257 252 253 254 257 261 264 267 269 270 269 270 271 272 275 276 279 282 284 287
218 198 195 194 204 207 214 209 215 220 223 225 228 231 233 235 237 239 240 241 245 245 257 251 253 255 255 257 260 264 269 271 270 271 271 271 271 273 278 280 282 286 288
229 220 214 209 206 221 216 212 215 219 221 224 227 229 232 234 237 236 236 241 237 250 251 251 253 255 257 257 262 266 272 270 269 270 271 271 273 275 276 278 281 284 286
236 213 221 215 234 228 221 215 216 219 221 225 229 232 235 236 237 236 237 241 240 246 249 253 254 257 258 259 262 267 271 269 269 270 270 270 272 274 277 280 283 285 286
243 238 225 230 253 226 229 218 214 213 223 226 231 235 235 234 235 236 241 240 246 250 249 250 257 258 256 263 259 264 265 267 268 270 271 274 275 277 279 281 282 281 287
230 238 262 250 234 232 227 231 229 226 218 228 228 233 236 233 234 237 244 244 243 245 254 257 254 257 264 262 266 266 266 267 268 269 272 274 276 278 280 281 281 286 290
216 234 216 234 231 231 228 227 231 231 224 224 236 240 235 239 236 239 240 241 245 251 247 255 259 265 262 262 262 261 264 263 265 267 274 275 275 277 278 279 284 289 288
203 221 193 195 199 216 230 231 227 226 232 234 248 257 249 246 249 255 254 249 252 260 252 245 246 254 259 257 257 258 258 261 262 272 276 277 278 277 278 281 285 287 284
200 180 204 191 210 208 209 220 224 236 236 243 253 250 251 252 255 265 260 260 260 257 239 243 262 258 252 255 258 258 259 257 266 269 272 269 276 280 278 278 282 281 279
204 218 209 190 196 196 205 193 193 203 217 220 249 238 241 254 254 258 253 262 261 256 251 240 255 247 246 250 263 262 260 262 268 267 269 270 277 272 269 275 278 279 278
Height
5852 5855 5857 5858 5860 5863 5865 5867 5869 5869 5870 5871 5871 5871 5872 5873 5873 5873 5874 5873 5873 5873 5873 5872 5872 5873 5872 5872 5871 5871 5870 5870 5870 5870 5871 5871 5870 5870 5869 5869 5868 5867 5865
5846 5849 5853 5856 5857 5859 5861 5863 5866 5867 5867 5869 5870 5870 5870 5871 5872 5872 5873 5873 5873 5872 5872 5872 5872 5872 5871 5871 5871 5870 5869 5869 5869 5870 5870 5870 5869 5869 5869 5868 5867 5866 5865
5839 5843 5847 5851 5854 5855 5857 5859 5861 5864 5865 5866 5867 5868 5869 5869 5870 5871 5872 5872 5872 5871 5871 5871 5871 5871 5870 5871 5870 5869 5869 5869 5868 5869 5869 5869 5868 5868 5868 5867 5866 5865 5864
5833 5837 5841 5846 5849 5851 5853 5856 5857 5860 5861 5863 5864 5866 5866 5867 5868 5868 5869 5870 5870 5870 5870 5870 5869 5869 5869 5869 5869 5869 5868 5868 5868 5868 5868 5868 5868 5867 5867 5867 5866 5865 5863
5826 5831 5837 5841 5844 5847 5849 5852 5853 5856 5858 5860 5862 5863 5863 5864 5866 5866 5866 5867 5868 5869 5869 5869 5868 5868 5868 5867 5867 5867 5867 5867 5866 5866 5866 5866 5866 5866 5866 5866 5865 5864 5862
5821 5825 5830 5835 5838 5842 5845 5847 5849 5851 5854 5856 5858 5859 5859 5861 5862 5864 5864 5866 5866 5866 5867 5867 5867 5867 5867 5867 5866 5866 5866 5866 5865 5864 5864 5864 5865 5865 5864 5864 5863 5862 5861
5813 5819 5822 5827 5832 5835 5840 5842 5845 5847 5850 5852 5854 5855 5855 5858 5859 5860 5862 5863 5864 5864 5864 5865 5865 5865 5865 5865 5865 5865 5864 5864 5864 5864 5863 5863 5863 5863 5862 5862 5861 5860 5859
5804 5808 5814 5819 5825 5828 5832 5837 5840 5843 5845 5848 5850 5851 5852 5854 5855 5857 5858 5860 5861 5861 5861 5862 5863 5863 5863 5863 5863 5863 5863 5862 5862 5863 5863 5863 5862 5862 5861 5860 5860 5859 5857
5793 5799 5806 5812 5818 5822 5826 5831 5834 5837 5840 5843 5845 5846 5849 5851 5852 5853 5854 5856 5858 5859 5859 5860 5860 5860 5861 5861 5861 5861 5861 5861 5861 5861 5861 5861 5861 5860 5859 5859 5858 5857 5856
5784 5793 5798 5803 5808 5814 5819 5824 5828 5831 5834 5837 5841 5842 5845 5847 5849 5850 5851 5852 5853 5855 5857 5857 5858 5858 5858 5859 5859 5859 5859 5859 5859 5859 5859 5859 5858 5858 5857 5857 5856 5855 5854
5774 5783 5792 5799 5801 5806 5811 5815 5820 5825 5829 5832 5835 5838 5840 5842 5843 5845 5847 5848 5850 5852 5853 5854 5854 5855 5855 5855 5856 5856 5856 5856 5856 5856 5856 5856 5856 5855 5855 5854 5853 5852 5850
5756 5771 5781 5787 5793 5799 5804 5808 5813 5817 5821 5825 5829 5833 5835 5837 5838 5840 5842 5845 5846 5847 5849 5850 5851 5852 5852 5852 5853 5853 5854 5854 5854 5854 5853 5853 5852 5851 5850 5850 5850 5848 5846
5740 5755 5768 5778 5784 5790 5796 5800 5805 5809 5813 5818 5821 5825 5829 5832 5833 5834 5836 5839 5841 5842 5844 5845 5846 5847 5848 5849 5848 5849 5850 5850 5850 5850 5850 5849 5849 5848 5847 5846 5845 5844 5843
5740 5747 5758 5771 5756 5777 5787 5793 5797 5802 5805 5810 5814 5818 5822 5825 5827 5829 5831 5833 5836 5838 5839 5841 5842 5843 5844 5845 5845 5845 5845 5845 5846 5846 5846 5845 5844 5844 5843 5841 5841 5840 5839
5734 5743 5752 5759 5765 5767 5777 5784 5789 5794 5798 5802 5807 5811 5815 5818 5821 5824 5826 5828 5830 5832 5834 5836 5837 5839 5840 5840 5841 5841 5841 5841 5841 5841 5841 5841 5839 5839 5838 5837 5835 5835 5832
5724 5736 5745 5754 5761 5756 5762 5773 5781 5786 5791 5795 5800 5804 5808 5811 5814 5817 5819 5822 5824 5827 5829 5831 5833 5833 5834 5835 5836 5836 5837 5837 5836 5836 5836 5836 5835 5833 5833 5832 5831 5830 5828
5719 5729 5736 5748 5750 5737 5747 5761 5771 5777 5782 5787 5792 5796 5800 5804 5807 5811 5814 5816 5819 5822 5823 5826 5826 5827 5827 5828 5830 5830 5830 5831 5831 5830 5829 5830 5829 5827 5826 5825 5825 5823 5822
5718 5727 5732 5739 5742 5731 5742 5749 5761 5770 5774 5779 5784 5789 5793 5797 5800 5804 5807 5809 5813 5815 5816 5819 5820 5821 5821 5822 5823 5824 5824 5824 5824 5823 5822 5823 5822 5821 5822 5820 5820 5818 5816
5713 5723 5731 5732 5736 5735 5735 5745 5752 5759 5765 5771 5775 5780 5785 5788 5792 5795 5798 5800 5804 5807 5810 5812 5813 5815 5816 5816 5816 5817 5817 5817 5817 5816 5816 5815 5814 5814 5813 5814 5812 5811 5809
5713 5721 5725 5727 5734 5736 5738 5743 5747 5752 5758 5764 5769 5774 5777 5780 5783 5786 5789 5794 5797 5798 5803 5805 5806 5807 5809 5808 5808 5810 5810 5810 5810 5810 5808 5807 5806 5805 5805 5805 5806 5804 5803
5707 5714 5716 5720 5728 5733 5736 5738 5741 5745 5751 5756 5760 5764 5768 5771 5775 5778 5781 5785 5787 5791 5795 5797 5799 5800 5801 5800 5800 5801 5801 5801 5802 5801 5801 5800 5800 5799 5798 5797 5796 5797 5794
5702 5709 5714 5717 5721 5726 5731 5733 5739 5740 5743 5747 5751 5753 5756 5760 5764 5768 5772 5775 5780 5783 5787 5788 5790 5792 5794 5793 5794 5793 5793 5793 5793 5795 5793 5792 5792 5791 5791 5790 5789 5788 5787
5699 5710 5708 5712 5714 5717 5721 5727 5732 5738 5740 5742 5744 5748 5749 5752 5756 5759 5763 5767 5772 5776 5780 5781 5781 5782 5784 5785 5784 5784 5783 5783 5786 5785 5784 5783 5782 5782 5782 5782 5781 5779 5777
5693 5703 5702 5706 5710 5716 5718 5722 5728 5732 5736 5738 5740 5741 5744 5746 5746 5750 5756 5760 5764 5768 5772 5772 5771 5776 5776 5774 5773 5774 5775 5775 5776 5776 5777 5774 5773 5772 5773 5773 5771 5770 5768
5689 5694 5697 5700 5706 5713 5714 5717 5724 5731 5733 5734 5735 5735 5736 5738 5741 5745 5749 5753 5755 5758 5763 5766 5768 5764 5764 5763 5764 5766 5766 5767 5767 5767 5767 5766 5766 5762 5762 5763 5763 5761 5760
5686 5689 5692 5697 5702 5705 5709 5714 5719 5722 5725 5725 5723 5724 5734 5733 5736 5736 5739 5743 5742 5746 5752 5756 5759 5758 5759 5755 5756 5757 5758 5759 5759 5758 5758 5756 5757 5756 5757 5755 5753 5752 5751